When you browse on this site, cookies collect data to enhance your experience and personalize the content and advertising you see.
Visit our Privacy Policy to learn more. By continuing to use the site, you agree to this use of cookies and data.
  • In Schweiz
  • Länderverzeichnis
  • Für 7 Tage
  • Wassertemperatur
  • Satellitenkarten
  • Wetterkarte
  • Widgets
  • user-avatar
    Anmelden

    Stündliche Wetter Seevetal

    Heute, 23 Juli, Dienstag

    Zeit Temperatur Niederschläge Wind Luftdruck Luftfeuchtigkeit
    00:00 +19°C° 0 mm 1 m/S 762 mmHg 94%
    01:00 +18°C° 0 mm 1 m/S 762 mmHg 96%
    02:00 +18°C° 0 mm 1 m/S 762 mmHg 96%
    03:00 +18°C° 0 mm 1 m/S 761 mmHg 96%
    04:00 +16°C° 0 mm 1 m/S 761 mmHg 97%
    05:00 +17°C° 0 mm 2 m/S 761 mmHg 94%
    06:00 +19°C° 0 mm 2 m/S 762 mmHg 91%
    07:00 +20°C° 0 mm 2 m/S 762 mmHg 88%
    08:00 +23°C° 0 mm 2 m/S 762 mmHg 79%
    09:00 +24°C° 0 mm 2 m/S 762 mmHg 71%
    10:00 +26°C° 0 mm 2 m/S 762 mmHg 62%
    11:00 +27°C° 0 mm 2 m/S 762 mmHg 58%
    12:00 +28°C° 0 mm 2 m/S 761 mmHg 53%
    13:00 +30°C° 0 mm 2 m/S 761 mmHg 49%
    14:00 +30°C° 0 mm 2 m/S 761 mmHg 49%
    15:00 +30°C° 0 mm 2 m/S 761 mmHg 50%
    16:00 +30°C° 0 mm 2 m/S 761 mmHg 50%
    17:00 +29°C° 0 mm 2 m/S 761 mmHg 57%
    18:00 +28°C° 0 mm 2 m/S 760 mmHg 64%
    19:00 +26°C° 0 mm 2 m/S 760 mmHg 71%
    20:00 +25°C° 0 mm 2 m/S 760 mmHg 77%
    21:00 +23°C° 0 mm 1 m/S 761 mmHg 84%
    22:00 +21°C° 0 mm 1 m/S 761 mmHg 90%
    23:00 +21°C° 0 mm 1 m/S 760 mmHg 91%

    Morgen, 24 Juli, Mittwoch

    Zeit Temperatur Niederschläge Wind Luftdruck Luftfeuchtigkeit
    00:00 +20°C° 0 mm 1 m/S 760 mmHg 92%
    01:00 +19°C° 0 mm 2 m/S 760 mmHg 94%
    02:00 +19°C° 0 mm 2 m/S 760 mmHg 94%
    03:00 +19°C° 0 mm 2 m/S 760 mmHg 95%
    04:00 +18°C° 0 mm 2 m/S 759 mmHg 95%
    05:00 +19°C° 0 mm 2 m/S 759 mmHg 90%
    06:00 +20°C° 0 mm 2 m/S 759 mmHg 85%
    07:00 +21°C° 0 mm 2 m/S 759 mmHg 79%
    08:00 +24°C° 0 mm 2 m/S 759 mmHg 72%
    09:00 +26°C° 0 mm 2 m/S 759 mmHg 66%
    10:00 +28°C° 0 mm 2 m/S 759 mmHg 59%
    11:00 +30°C° 0 mm 2 m/S 759 mmHg 53%
    12:00 +31°C° 0 mm 2 m/S 758 mmHg 48%
    13:00 +34°C° 0 mm 2 m/S 758 mmHg 43%
    14:00 +34°C° 0 mm 2 m/S 758 mmHg 43%
    15:00 +34°C° 0 mm 2 m/S 758 mmHg 42%
    16:00 +34°C° 0 mm 2 m/S 758 mmHg 42%
    17:00 +32°C° 0 mm 2 m/S 757 mmHg 49%
    18:00 +31°C° 0 mm 2 m/S 757 mmHg 55%
    19:00 +29°C° 0 mm 2 m/S 757 mmHg 62%
    20:00 +28°C° 0 mm 2 m/S 757 mmHg 65%
    21:00 +26°C° 0 mm 2 m/S 758 mmHg 67%
    22:00 +25°C° 0 mm 2 m/S 758 mmHg 69%
    23:00 +24°C° 0 mm 2 m/S 758 mmHg 70%

    übermorgen, 25 Juli, Donnerstag

    Zeit Temperatur Niederschläge Wind Luftdruck Luftfeuchtigkeit
    00:00 +24°C° 0 mm 2 m/S 758 mmHg 71%
    01:00 +23°C° 0 mm 2 m/S 758 mmHg 72%
    02:00 +23°C° 0 mm 2 m/S 758 mmHg 72%
    03:00 +21°C° 0 mm 2 m/S 758 mmHg 72%
    04:00 +21°C° 0 mm 3 m/S 758 mmHg 72%
    05:00 +22°C° 0 mm 3 m/S 758 mmHg 69%
    06:00 +24°C° 0 mm 3 m/S 758 mmHg 67%
    07:00 +25°C° 0 mm 3 m/S 758 mmHg 65%
    08:00 +27°C° 0 mm 3 m/S 759 mmHg 59%
    09:00 +29°C° 0 mm 3 m/S 759 mmHg 53%
    10:00 +31°C° 0 mm 3 m/S 759 mmHg 48%
    11:00 +33°C° 0 mm 3 m/S 759 mmHg 45%
    12:00 +34°C° 0 mm 3 m/S 759 mmHg 42%
    13:00 +36°C° 0 mm 3 m/S 759 mmHg 39%
    14:00 +36°C° 0 mm 3 m/S 758 mmHg 40%
    15:00 +35°C° 0 mm 3 m/S 758 mmHg 40%
    16:00 +35°C° 0 mm 3 m/S 758 mmHg 40%
    17:00 +34°C° 0 mm 3 m/S 758 mmHg 46%
    18:00 +31°C° 0 mm 3 m/S 758 mmHg 53%
    19:00 +30°C° 0 mm 2 m/S 758 mmHg 59%
    20:00 +28°C° 0 mm 3 m/S 758 mmHg 61%
    21:00 +27°C° 0 mm 3 m/S 758 mmHg 64%
    22:00 +25°C° 0 mm 3 m/S 759 mmHg 67%
    23:00 +24°C° 0 mm 3 m/S 759 mmHg 70%

    26 Juli, Freitag

    Zeit Temperatur Niederschläge Wind Luftdruck Luftfeuchtigkeit
    00:00 +22°C° 0 mm 3 m/S 759 mmHg 72%
    01:00 +21°C° 0 mm 3 m/S 759 mmHg 75%
    02:00 +21°C° 0 mm 3 m/S 758 mmHg 78%
    03:00 +20°C° 0 mm 3 m/S 758 mmHg 81%
    04:00 +20°C° 0 mm 3 m/S 758 mmHg 85%
    05:00 +20°C° 0 mm 3 m/S 758 mmHg 80%
    06:00 +21°C° 0 mm 3 m/S 758 mmHg 75%
    07:00 +22°C° 0 mm 3 m/S 758 mmHg 70%
    08:00 +23°C° 0 mm 4 m/S 758 mmHg 64%
    09:00 +26°C° 0 mm 4 m/S 758 mmHg 58%
    10:00 +28°C° 0 mm 4 m/S 758 mmHg 52%
    11:00 +29°C° 0 mm 5 m/S 758 mmHg 49%
    12:00 +30°C° 0 mm 5 m/S 758 mmHg 45%
    13:00 +32°C° 0 mm 5 m/S 757 mmHg 42%
    14:00 +32°C° 0 mm 5 m/S 757 mmHg 43%
    15:00 +32°C° 0 mm 5 m/S 757 mmHg 44%
    16:00 +32°C° 0 mm 5 m/S 757 mmHg 45%
    17:00 +30°C° 0 mm 5 m/S 756 mmHg 50%
    18:00 +29°C° 0 mm 5 m/S 756 mmHg 55%
    19:00 +27°C° 0 mm 4 m/S 756 mmHg 59%
    20:00 +26°C° 0 mm 4 m/S 756 mmHg 60%
    21:00 +23°C° 0 mm 5 m/S 756 mmHg 60%
    22:00 +22°C° 0 mm 5 m/S 756 mmHg 60%
    23:00 +21°C° 0 mm 4 m/S 756 mmHg 64%

    27 Juli, Samstag

    Zeit Temperatur Niederschläge Wind Luftdruck Luftfeuchtigkeit
    00:00 +20°C° 0 mm 4 m/S 756 mmHg 68%
    01:00 +19°C° 0 mm 4 m/S 756 mmHg 71%
    02:00 +18°C° 0 mm 4 m/S 755 mmHg 74%
    03:00 +18°C° 0 mm 4 m/S 755 mmHg 77%
    04:00 +17°C° 0 mm 4 m/S 755 mmHg 80%
    05:00 +18°C° 0 mm 4 m/S 755 mmHg 79%
    06:00 +19°C° 0 mm 4 m/S 755 mmHg 78%
    07:00 +19°C° 0 mm 4 m/S 755 mmHg 77%
    08:00 +21°C° 0 mm 4 m/S 755 mmHg 69%
    09:00 +23°C° 0 mm 5 m/S 754 mmHg 62%
    10:00 +26°C° 0 mm 5 m/S 754 mmHg 55%
    11:00 +27°C° 0 mm 5 m/S 754 mmHg 52%
    12:00 +28°C° 0 mm 6 m/S 754 mmHg 49%
    13:00 +29°C° 0 mm 6 m/S 753 mmHg 46%
    14:00 +29°C° 0 mm 6 m/S 753 mmHg 47%
    15:00 +29°C° 0 mm 5 m/S 753 mmHg 47%
    16:00 +29°C° 0 mm 5 m/S 753 mmHg 47%
    17:00 +28°C° 0 mm 5 m/S 753 mmHg 52%
    18:00 +28°C° 0 mm 4 m/S 753 mmHg 57%
    19:00 +27°C° 0 mm 4 m/S 753 mmHg 61%
    20:00 +25°C° 0 mm 4 m/S 753 mmHg 66%
    21:00 +23°C° 0 mm 4 m/S 753 mmHg 71%
    22:00 +22°C° 0 mm 5 m/S 753 mmHg 76%
    23:00 +21°C° 0 mm 4 m/S 753 mmHg 79%

    28 Juli, Sonntag

    Zeit Temperatur Niederschläge Wind Luftdruck Luftfeuchtigkeit
    00:00 +21°C° 0 mm 4 m/S 753 mmHg 81%
    01:00 +20°C° 0 mm 4 m/S 753 mmHg 84%
    02:00 +20°C° 0 mm 3 m/S 753 mmHg 85%
    03:00 +20°C° 0 mm 3 m/S 753 mmHg 87%
    04:00 +19°C° 0 mm 3 m/S 753 mmHg 88%
    05:00 +20°C° 0 mm 3 m/S 754 mmHg 85%
    06:00 +21°C° 0 mm 3 m/S 754 mmHg 82%
    07:00 +22°C° 0 mm 4 m/S 754 mmHg 79%
    08:00 +25°C° 0 mm 4 m/S 754 mmHg 72%
    09:00 +26°C° 0 mm 4 m/S 754 mmHg 65%
    10:00 +28°C° 0 mm 5 m/S 755 mmHg 59%
    11:00 +29°C° 0 mm 5 m/S 754 mmHg 55%
    12:00 +30°C° 0 mm 5 m/S 754 mmHg 52%
    13:00 +32°C° 0 mm 5 m/S 754 mmHg 48%
    14:00 +32°C° 0 mm 5 m/S 754 mmHg 48%
    15:00 +32°C° 0 mm 5 m/S 754 mmHg 48%
    16:00 +32°C° 0 mm 5 m/S 754 mmHg 47%
    17:00 +30°C° 0 mm 5 m/S 754 mmHg 53%
    18:00 +29°C° 0 mm 4 m/S 754 mmHg 58%
    19:00 +28°C° 0 mm 4 m/S 754 mmHg 64%
    20:00 +27°C° 0 mm 4 m/S 755 mmHg 68%
    21:00 +25°C° 0 mm 4 m/S 755 mmHg 73%
    22:00 +24°C° 0 mm 3 m/S 756 mmHg 77%
    23:00 +22°C° 0 mm 3 m/S 756 mmHg 80%
    Mehr zeigen